TimeAST,TemperatureF,Dew PointF,Humidity,Sea Level PressureIn,VisibilityMPH,Wind Direction,Wind SpeedMPH,Gust SpeedMPH,PrecipitationIn,Events,Conditions,WindDirDegrees,DateUTC
12:00 AM,82.4,75.2,79,29.83,-9999.0,North,-9999.0,-,N/A,,Unknown,0,2012-10-06 04:00:00
1:00 AM,82.4,75.2,79,29.80,-9999.0,North,-9999.0,-,N/A,,Unknown,0,2012-10-06 05:00:00
2:00 AM,81,76,79,,,ESE,11.5,,,,Clear,110,2012-10-06 06:00:00
2:00 AM,80.6,75.2,84,29.80,-9999.0,North,-9999.0,-,N/A,,Unknown,0,2012-10-06 06:00:00
3:00 AM,80.6,75.2,84,29.77,-9999.0,North,-9999.0,-,N/A,,Unknown,0,2012-10-06 07:00:00
4:00 AM,80.6,75.2,84,29.77,-9999.0,North,-9999.0,-,N/A,,Unknown,0,2012-10-06 08:00:00
5:00 AM,81,76,80,,,ESE,11.5,,,,Clear,110,2012-10-06 09:00:00
5:00 AM,80.6,75.2,84,29.77,-9999.0,North,-9999.0,-,N/A,,Unknown,0,2012-10-06 09:00:00
6:00 AM,80.6,75.2,84,29.80,-9999.0,North,-9999.0,-,N/A,,Unknown,0,2012-10-06 10:00:00
8:00 AM,86,77,67,29.85,22,ESE,8.1,,,,Partly Cloudy,110,2012-10-06 12:00:00
8:00 AM,86.0,77.0,74,29.83,6.2,ESE,8.1,-,N/A,,Scattered Clouds,110,2012-10-06 12:00:00
9:00 AM,87.8,77.0,70,29.86,6.2,ESE,10.4,-,N/A,,Scattered Clouds,120,2012-10-06 13:00:00
10:00 AM,87.8,77.0,70,29.86,-9999.0,ESE,11.5,-,N/A,,Unknown,110,2012-10-06 14:00:00
11:00 AM,89,76,58,29.86,22,ESE,11.5,,,,Scattered Clouds,110,2012-10-06 15:00:00
11:00 AM,87.8,75.2,66,29.86,6.2,ESE,10.4,-,N/A,,Partly Cloudy,120,2012-10-06 15:00:00
12:00 PM,89.6,73.4,59,29.83,6.2,ESE,11.5,-,N/A,,Scattered Clouds,120,2012-10-06 16:00:00
1:00 PM,87.8,75.2,66,29.80,6.2,East,11.5,-,N/A,,Partly Cloudy,100,2012-10-06 17:00:00
2:00 PM,89,83,78,29.78,22,ESE,9.2,,,,,120,2012-10-06 18:00:00
2:00 PM,87.8,75.2,66,29.77,-9999.0,North,-9999.0,-,N/A,,Unknown,0,2012-10-06 18:00:00
3:00 PM,87.8,77.0,70,29.74,6.2,East,10.4,-,N/A,,Scattered Clouds,90,2012-10-06 19:00:00
5:00 PM,85,74,64,,6,ESE,11.5,,,,Clear,110,2012-10-06 21:00:00
5:00 PM,86.0,75.2,70,29.74,-9999.0,North,-9999.0,-,N/A,,Unknown,0,2012-10-06 21:00:00
6:00 PM,84.2,75.2,74,29.74,6.2,East,10.4,-,N/A,,Partly Cloudy,80,2012-10-06 22:00:00
7:00 PM,84.2,73.4,70,29.77,6.2,East,9.2,-,N/A,,Partly Cloudy,90,2012-10-06 23:00:00
8:00 PM,83,76,74,,6,ESE,11.5,,,,Clear,110,2012-10-07 00:00:00
8:00 PM,84.2,77.0,79,29.80,-9999.0,North,-9999.0,-,N/A,,Unknown,0,2012-10-07 00:00:00
9:00 PM,82.4,77.0,84,29.83,-9999.0,North,-9999.0,-,N/A,,Unknown,0,2012-10-07 01:00:00
10:00 PM,82.4,77.0,84,29.86,-9999.0,North,-9999.0,-,N/A,,Unknown,0,2012-10-07 02:00:00
11:00 PM,82.4,77.0,84,29.86,-9999.0,North,-9999.0,-,N/A,,Unknown,0,2012-10-07 03:00:00